Theta_e
312 312 311 311 310 308 306 302 296 311 314 303 303 297 299 301 302 306 305 305 304 303 306 307 305 305 309 315 314 308 310 302 300 304 310 312 308 304 303 298 297 299 299 299
312 312 312 311 309 309 304 298 300 309 309 297 299 303 302 302 301 302 302 302 305 307 305 304 309 310 314 314 313 309 309 304 298 300 304 308 306 306 304 305 303 297 297 300
312 312 312 311 310 310 305 298 295 304 305 305 303 301 302 301 306 303 304 303 305 304 305 307 306 308 313 315 314 323 316 304 300 298 301 305 303 306 306 301 296 297 299 304
312 312 312 312 311 310 305 300 297 302 296 299 300 303 304 301 301 305 304 301 303 302 301 305 304 308 310 315 318 319 311 301 304 305 307 308 307 307 306 301 302 300 302 305
312 312 312 312 311 309 302 295 297 302 299 300 300 300 302 305 305 304 303 301 303 304 301 306 304 307 307 310 314 311 309 302 305 303 308 307 306 310 308 307 306 305 306 306
312 312 312 311 310 308 301 305 304 300 298 298 297 298 301 301 305 306 307 307 304 303 305 310 309 311 310 310 308 309 306 303 303 298 306 305 302 305 308 308 309 306 302 310
311 311 312 311 311 309 306 303 301 297 293 296 297 299 301 302 303 302 308 308 307 309 312 315 312 310 308 311 312 313 308 307 305 298 300 293 304 311 313 311 311 314 317 317
310 310 311 311 311 310 305 305 301 297 292 297 297 300 299 301 305 307 308 311 317 317 311 307 304 303 304 307 312 313 309 308 301 298 297 302 307 310 311 309 310 319 317 318
309 309 310 311 310 310 306 304 306 300 295 294 300 297 299 298 300 305 311 315 317 315 310 305 300 297 301 302 308 310 310 310 305 300 296 295 305 316 318 316 303 318 318 315
308 308 309 310 310 309 306 304 307 301 295 299 300 296 296 301 300 303 308 306 312 312 305 302 299 298 305 300 302 306 306 305 302 301 298 302 312 316 319 302 306 321 324 321
307 307 308 309 310 310 307 303 307 301 297 298 301 301 297 299 299 297 301 304 309 307 302 302 302 300 302 301 307 309 305 303 301 304 302 299 320 314 309 316 320 322 323 323
306 307 307 308 309 309 308 300 306 307 300 299 305 304 304 302 302 300 302 301 307 310 306 306 306 302 303 302 298 311 306 308 306 308 311 320 324 323 325 324 320 320 320 322
306 306 307 308 309 309 307 302 305 303 300 300 300 299 305 307 305 307 300 303 306 305 310 307 309 307 311 302 304 304 315 318 313 312 315 319 321 324 324 324 321 320 318 316
305 306 307 307 309 308 308 302 305 303 301 294 298 309 305 310 308 306 308 308 308 308 310 308 307 306 313 308 308 307 307 313 315 313 316 317 319 320 319 319 318 317 316 315
306 306 307 308 309 308 307 305 306 307 299 294 296 303 306 309 309 308 309 309 309 307 307 308 307 311 309 312 310 306 312 308 310 306 313 317 317 318 319 317 315 316 314 313
306 306 307 307 308 308 305 299 307 307 305 298 293 305 306 307 309 307 308 308 308 309 307 308 310 311 310 305 304 311 313 313 314 314 317 320 320 321 321 316 314 314 312 311
306 306 307 307 307 304 300 298 304 307 305 299 295 298 305 309 308 305 305 308 308 308 307 306 307 306 311 307 301 310 312 313 314 315 316 313 315 314 317 317 315 314 313 312
306 306 306 306 308 305 300 304 307 307 301 302 295 297 300 308 301 300 306 305 307 307 306 307 305 308 307 303 306 308 309 311 311 310 310 310 310 311 311 312 312 311 310 310
307 307 307 305 302 300 304 310 312 309 303 295 299 295 295 305 302 305 304 307 300 307 302 303 305 302 299 305 306 306 309 308 309 309 309 309 309 309 312 313 313 308 308 311
307 305 300 296 304 312 309 304 301 300 301 300 297 304 298 303 304 302 302 304 301 297 301 304 300 299 306 306 308 309 310 309 309 306 306 309 310 312 313 313 313 314 314 315
303 299 299 309 312 304 301 298 298 299 297 300 301 302 299 307 300 300 305 299 301 297 299 299 297 297 303 309 310 312 312 311 310 311 311 311 311 312 314 316 318 318 319 319
302 302 304 310 302 300 297 296 299 298 296 299 300 302 304 306 311 304 305 302 301 297 305 299 296 305 309 309 311 312 312 312 312 314 314 315 318 318 317 317 318 319 320 321
310 302 301 301 299 288 292 291 295 297 303 305 305 302 304 306 307 304 302 299 297 305 299 297 303 309 311 311 313 314 316 317 317 316 319 320 320 321 319 318 319 319 319 320
302 299 287 294 293 296 296 297 300 301 306 306 306 304 302 304 302 303 301 301 302 296 294 297 306 310 313 314 316 315 315 317 317 318 319 318 318 317 318 317 318 317 316 318
300 299 289 296 300 300 301 301 304 307 310 307 306 305 304 302 301 302 301 298 294 296 298 304 309 312 315 315 315 315 317 318 318 318 317 316 317 316 314 315 315 314 316 317
300 300 296 298 301 300 303 303 303 308 308 310 308 303 301 299 300 298 297 296 294 299 305 309 312 313 314 315 316 318 319 318 318 318 318 317 315 314 313 313 311 310 311 313
299 298 304 301 303 302 303 304 305 309 306 304 305 299 297 304 298 297 301 297 301 304 306 308 312 310 311 313 314 318 319 318 317 317 316 314 316 315 313 309 310 308 309 309
Wind_Speed
17 17 18 18 19 23 10 6 6 4 3 10 7 10 9 12 21 19 20 21 23 23 23 14 22 23 17 21 19 20 20 5 11 15 9 17 13 10 10 7 6 3 7 8
16 16 16 15 14 13 8 6 8 9 7 10 10 12 21 25 23 23 22 23 22 22 22 7 2 9 14 18 22 21 13 14 11 12 8 13 15 10 7 6 5 4 4 5
16 15 15 13 11 10 6 5 6 5 3 6 13 17 18 22 23 27 24 24 21 22 20 7 7 13 15 16 22 24 16 10 11 14 9 8 9 8 6 7 5 5 6 8
15 15 13 12 10 8 5 5 7 8 7 10 16 16 16 23 23 21 22 23 23 21 16 7 9 13 18 18 17 19 21 10 12 11 13 10 14 16 14 9 8 10 12 14
16 15 12 10 8 10 4 5 6 10 14 13 16 13 15 17 21 21 21 22 24 20 17 10 8 10 10 7 9 12 12 8 9 7 16 13 15 17 18 19 12 5 7 6
16 14 12 9 7 4 4 5 10 7 9 9 10 11 14 21 21 23 23 23 21 22 20 10 9 14 11 8 4 5 10 8 7 9 9 7 9 8 9 11 12 9 8 7
15 13 13 10 8 4 5 6 8 8 9 10 13 21 22 24 26 20 24 22 8 21 9 6 8 11 7 9 9 5 6 8 6 6 5 8 9 6 8 12 14 8 16 14
12 13 13 12 10 9 5 7 6 5 9 12 17 16 20 25 22 19 19 12 4 13 10 5 3 4 6 10 8 12 6 6 3 7 6 4 8 11 5 7 2 24 15 15
11 13 14 12 11 9 4 6 7 4 6 8 15 19 19 16 15 12 10 13 4 8 1 3 7 6 5 4 2 3 3 5 6 4 6 13 8 4 9 5 1 14 24 17
12 13 14 12 10 9 5 6 10 5 9 12 13 11 13 15 14 8 8 17 6 5 2 2 4 6 5 9 6 5 4 5 4 3 4 4 5 7 4 10 8 14 17 13
12 13 14 12 11 9 4 7 9 3 7 16 20 20 16 15 7 6 15 13 8 1 1 1 2 3 7 5 8 8 7 6 3 2 3 2 10 9 7 7 8 15 17 16
13 13 13 12 13 10 4 6 7 3 5 12 19 23 23 25 23 11 6 6 5 5 5 5 2 2 4 4 6 6 6 8 10 5 1 1 15 13 7 13 13 8 12 9
14 14 13 13 13 11 5 6 7 4 4 12 11 12 16 17 21 13 3 5 8 7 6 4 4 2 4 3 4 4 3 3 9 11 2 8 14 15 8 11 13 10 11 12
14 14 14 13 10 9 6 6 6 2 4 6 6 9 7 13 8 16 12 10 7 7 6 3 3 2 6 6 3 7 4 9 6 10 7 9 11 8 10 14 14 15 13 12
15 12 12 10 8 8 6 7 7 7 2 4 10 20 11 10 4 7 5 4 6 5 5 3 0 1 5 4 4 7 5 4 3 2 9 8 7 8 12 13 12 11 12 10
12 9 9 7 8 6 3 3 3 2 3 4 5 5 7 5 3 4 3 6 6 3 3 3 2 3 5 3 4 2 6 12 6 6 6 11 11 8 11 12 10 9 10 8
7 7 7 8 8 4 3 3 4 6 3 4 5 5 4 4 3 3 4 5 3 3 4 2 3 4 5 4 4 9 15 8 4 6 9 11 13 4 7 8 8 7 6 2
8 8 8 9 8 8 6 7 14 5 5 4 5 6 1 3 3 3 4 3 3 4 3 2 2 2 4 3 3 9 10 10 7 6 8 7 6 7 6 6 4 1 3 2
10 6 7 4 4 4 2 3 2 4 3 4 2 4 2 4 3 3 0 3 1 2 1 1 5 2 3 5 9 8 8 6 6 7 8 7 5 4 6 3 2 3 3 3
7 2 2 3 4 8 4 2 3 5 5 5 4 3 5 4 3 2 2 2 3 2 4 2 3 1 5 10 9 7 9 9 7 6 4 3 4 5 5 4 4 3 3 2
1 2 3 3 3 3 3 4 5 7 5 5 5 6 6 4 3 2 3 3 3 3 2 4 2 1 3 9 9 9 9 8 4 4 5 6 5 5 6 7 8 10 9 8
4 4 6 3 3 4 5 4 4 6 3 6 4 7 7 2 2 2 4 2 5 3 2 3 2 3 6 12 9 8 7 6 5 4 5 5 8 8 7 6 6 7 7 7
2 4 4 3 3 2 6 6 4 2 3 1 3 4 2 3 3 2 2 2 3 1 2 2 3 3 8 9 9 9 12 12 11 6 9 9 7 8 7 7 9 8 7 7
3 3 5 4 2 3 4 4 5 9 5 6 3 1 2 2 3 1 1 2 3 3 2 3 5 6 8 8 8 8 7 7 6 6 7 8 8 10 11 9 8 7 6 6
4 5 4 4 6 4 4 7 4 7 4 4 3 3 3 3 2 1 4 2 2 3 5 3 5 7 6 6 6 6 6 6 4 5 7 7 7 8 8 8 6 5 6 6
4 5 6 9 5 7 7 8 8 8 6 3 2 2 4 4 0 2 3 1 7 3 2 2 4 5 6 6 6 5 4 4 4 6 6 7 6 8 5 4 2 4 5 5
2 3 4 5 2 4 7 8 8 9 8 4 3 6 4 4 3 7 7 4 3 4 5 5 5 4 5 6 8 4 5 5 5 6 6 6 6 5 3 1 1 4 2 2
Wind_Direction
317 320 321 324 329 336 340 303 272 311 26 178 188 232 232 249 268 274 266 256 264 278 284 275 213 214 214 196 193 206 218 185 235 247 240 184 191 218 176 132 276 226 159 245
314 317 319 322 330 355 320 300 276 282 281 215 225 239 241 245 254 255 263 269 271 265 272 281 225 300 256 190 195 206 205 226 247 284 306 190 191 207 209 173 119 238 126 261
309 311 314 320 324 343 328 285 291 247 212 258 247 256 255 253 240 248 255 260 269 276 272 267 283 291 290 273 199 197 188 201 180 231 221 179 180 192 213 177 147 235 203 163
308 308 311 316 317 336 314 253 255 337 310 325 325 305 272 269 269 248 236 257 258 263 276 254 252 276 288 291 235 187 191 198 206 232 245 250 185 195 208 215 204 174 235 174
306 305 307 313 317 325 230 287 337 342 298 302 302 287 278 277 266 265 270 228 250 257 256 220 238 260 280 254 323 186 187 195 173 234 241 243 251 227 201 214 224 225 207 212
298 295 300 297 308 338 291 350 330 295 295 301 291 285 299 303 304 256 261 275 242 246 252 240 255 262 264 264 275 254 161 148 132 216 236 255 271 232 230 207 205 188 206 177
293 289 290 283 275 253 283 298 304 288 290 302 295 304 314 307 303 298 269 263 289 241 232 356 325 283 300 299 300 237 161 128 132 175 171 238 245 267 275 207 193 116 110 122
308 300 287 279 271 267 271 284 285 299 300 305 290 298 327 320 310 308 269 274 323 325 169 128 294 296 330 292 296 309 144 137 147 140 178 226 258 265 290 173 164 128 119 116
316 319 305 280 281 271 264 266 282 290 279 246 290 316 307 325 327 325 333 333 72 8 351 123 163 206 205 247 251 168 143 30 121 134 165 207 225 248 187 96 134 153 139 141
315 313 315 313 294 271 248 280 285 271 273 270 305 314 317 312 326 316 306 345 290 106 307 206 165 229 234 233 211 209 86 45 67 284 187 249 201 140 81 115 208 86 96 108
303 303 304 305 300 280 259 279 283 261 281 284 280 281 281 300 312 326 330 325 4 21 217 215 246 177 231 234 229 177 132 129 197 290 55 161 351 42 119 177 76 93 92 106
296 296 299 300 296 299 285 271 270 300 241 283 302 282 266 255 256 284 313 298 333 328 330 1 344 323 342 232 248 266 138 177 162 156 113 187 52 44 52 99 95 74 92 93
289 290 293 290 289 294 257 281 307 304 270 282 252 258 250 235 231 221 238 307 353 334 309 301 290 322 24 252 298 201 324 78 112 97 338 129 139 124 135 97 100 90 79 79
287 283 288 287 285 285 278 273 278 207 270 282 289 318 280 281 185 208 206 255 318 287 283 259 271 359 26 349 158 86 307 353 96 82 90 78 67 88 91 88 87 82 73 73
291 279 284 282 294 288 284 263 257 255 234 303 299 301 258 260 164 244 180 204 265 296 307 230 261 26 22 308 56 39 353 356 23 105 266 117 101 82 76 76 77 78 85 74
283 275 280 277 294 309 297 286 210 72 11 258 283 322 276 292 179 219 228 186 233 248 289 312 81 85 108 12 79 123 66 39 336 126 25 79 81 78 79 82 72 74 78 76
287 278 274 279 294 280 235 268 285 348 318 246 271 256 212 241 193 245 244 204 203 257 279 325 68 25 64 36 53 146 119 110 5 20 66 51 40 70 80 94 107 88 78 76
303 283 282 285 286 276 264 239 251 232 271 268 275 298 179 220 210 232 211 199 200 195 266 59 52 53 108 95 51 108 128 119 102 89 95 114 91 65 64 65 64 192 240 243
323 272 282 266 219 235 214 128 324 165 288 304 261 267 152 164 253 187 202 178 179 159 166 291 98 128 136 133 128 104 96 105 121 92 85 92 112 143 109 76 334 318 287 296
312 263 221 232 216 119 157 140 196 193 207 225 246 265 278 174 205 164 181 194 188 139 218 97 84 175 145 130 108 106 106 99 81 92 102 94 81 37 66 47 4 4 357 352
279 247 240 288 164 200 216 237 218 183 182 185 232 234 257 303 121 170 164 201 241 133 196 126 123 19 248 107 105 103 96 94 90 77 76 60 54 43 36 17 40 36 29 16
248 279 278 250 231 217 242 221 218 215 206 160 212 225 209 4 3 71 357 19 17 73 351 64 76 314 54 98 94 80 59 55 73 79 79 38 57 48 40 26 26 43 20 7
250 205 243 190 211 304 236 218 89 319 293 186 29 9 84 18 351 22 79 44 60 156 80 133 101 89 56 56 55 51 42 29 20 343 85 84 80 61 55 40 31 25 13 15
268 263 297 225 292 36 338 307 97 242 321 5 2 300 103 237 23 36 177 110 121 135 194 55 105 65 60 62 57 46 27 34 40 54 78 66 61 57 57 50 25 4 4 332
295 298 336 356 106 202 282 264 303 19 351 342 356 35 33 325 43 317 54 145 158 25 60 75 29 23 43 47 53 50 40 7 22 45 69 68 69 74 54 43 28 5 350 5
335 5 357 325 23 13 5 18 21 359 358 23 321 219 188 252 33 248 170 230 48 40 36 153 77 34 347 356 9 47 39 37 65 60 76 86 80 83 79 78 36 16 4 22
243 295 196 236 16 27 23 14 9 354 26 16 342 5 14 300 357 26 24 42 346 340 356 359 16 351 325 327 314 335 95 100 102 89 80 88 94 116 138 57 43 109 66 10